EDT,Max TemperatureF,Mean TemperatureF,Min TemperatureF,Max Dew PointF,MeanDew PointF,Min DewpointF,Max Humidity, Mean Humidity, Min Humidity, Max Sea Level PressureIn, Mean Sea Level PressureIn, Min Sea Level PressureIn, Max VisibilityMiles, Mean VisibilityMiles, Min VisibilityMiles, Max Wind SpeedMPH, Mean Wind SpeedMPH, Max Gust SpeedMPH,PrecipitationIn, CloudCover, Events, WindDirDegrees
2012-4-1,69,53,37,54,45,36,93,77,56,29.91,29.76,29.67,10,6,2,10,6,,0.00,5,Rain,177
2012-4-2,60,50,41,46,38,34,93,64,42,30.00,29.93,29.79,10,9,4,17,11,24,0.00,1,,101
2012-4-3,77,60,44,55,43,34,71,58,44,29.98,29.90,29.79,10,10,10,12,7,16,0.00,2,,130
2012-4-4,62,54,46,52,39,32,88,59,32,29.95,29.90,29.85,10,10,7,16,7,20,0.00,0,Rain,43
2012-4-5,53,45,37,34,31,28,76,57,41,30.02,29.97,29.90,10,10,10,16,9,22,0.00,0,,67
2012-4-6,57,44,32,30,27,25,80,58,33,30.30,30.22,30.13,10,10,10,13,7,20,0.00,0,,56
2012-4-7,64,47,30,32,27,14,100,61,14,30.34,30.28,30.20,10,10,7,9,1,,0.00,0,,188
2012-4-8,60,52,44,45,33,21,87,52,22,30.22,30.17,30.09,10,10,10,24,9,33,0.00,2,Rain,311
2012-4-9,60,50,41,39,30,21,87,48,23,30.10,29.98,29.90,10,10,10,25,9,36,0.00,3,Rain,303
2012-4-10,42,36,30,27,23,21,75,59,49,30.10,30.02,29.96,10,10,10,21,10,29,0.00,4,,312
2012-4-11,53,40,26,30,26,21,87,64,35,30.26,30.19,30.09,10,10,10,14,6,17,0.00,2,,314
2012-4-12,57,42,26,34,29,27,100,63,36,30.30,30.23,30.16,10,10,10,12,3,17,0.00,2,,327
2012-4-13,64,47,30,32,29,27,93,47,26,30.25,30.18,30.09,10,10,10,10,3,16,0.00,1,,160
2012-4-14,59,55,51,57,46,30,100,72,41,30.10,30.00,29.91,10,8,2,8,3,,0.09,7,Rain,191
2012-4-15,77,67,57,59,57,54,100,70,50,29.91,29.82,29.76,10,9,2,16,8,32,0.00,5,,202
2012-4-16,68,56,44,61,47,37,94,69,54,30.21,29.87,29.67,10,10,7,29,14,43,0.23,6,Rain,236
2012-4-17,59,47,35,39,36,34,100,70,44,30.37,30.31,30.21,10,9,2,7,3,9,0.00,2,,343
2012-4-18,68,50,33,41,37,32,100,60,33,30.32,30.17,30.01,10,10,7,9,3,16,0.00,1,,163
2012-4-19,77,66,55,46,43,41,63,48,28,30.03,29.95,29.84,10,10,10,15,6,23,0.00,4,,221
2012-4-20,69,56,42,50,44,41,100,69,42,29.90,29.78,29.70,10,8,2,17,9,23,0.05,4,Rain,247
2012-4-21,55,46,37,39,32,27,93,64,35,30.00,29.96,29.91,10,10,7,15,10,23,0.00,3,,24
2012-4-22,51,43,35,32,27,21,81,56,37,30.02,29.99,29.97,10,10,10,18,9,24,0.00,3,,39
2012-4-23,55,44,33,25,19,12,65,40,22,30.00,29.88,29.76,10,10,10,26,11,37,0.00,0,,330
2012-4-24,60,46,33,30,25,21,70,44,23,29.75,29.73,29.71,10,10,10,23,11,34,0.00,0,,300
2012-4-25,55,46,37,52,40,25,94,71,43,29.80,29.74,29.69,10,10,5,12,3,18,0.00,5,Rain,110
2012-4-26,59,48,35,50,40,14,100,71,24,30.13,29.81,29.61,10,8,4,23,10,31,0.00,4,,347
2012-4-27,53,42,30,30,22,18,81,45,26,30.28,30.20,30.12,10,10,10,10,6,16,0.00,1,,57
2012-4-28,48,44,39,37,34,25,81,69,40,30.23,30.14,30.09,10,10,7,20,9,25,0.14,7,Rain,95
2012-4-29,62,48,35,43,34,32,87,59,32,30.28,30.21,30.13,10,10,7,17,10,25,0.09,2,Rain,100
2012-4-30,68,56,44,61,49,27,100,78,40,30.13,29.98,29.90,10,8,4,14,7,20,0.22,7,Rain,188